owner,sensor,date,latitude,longitude,vertical_datum,sea_water_practical_salinity,qcFlag 
WAVCIS,ioos:station:WAVCIS:CSI16:2,2009-05-01T00:00:00Z,29.4012,-89.0355,1.0,29.213,11111222 
WAVCIS,ioos:station:WAVCIS:CSI16:2,2009-05-01T00:15:00Z,29.4012,-89.0355,1.0,28.937,11111222 
WAVCIS,ioos:station:WAVCIS:CSI16:2,2009-05-01T00:30:00Z,29.4012,-89.0355,1.0,28.593,11111222 
WAVCIS,ioos:station:WAVCIS:CSI16:2,2009-05-01T00:45:00Z,29.4012,-89.0355,1.0,28.422,11111222 
WAVCIS,ioos:station:WAVCIS:CSI16:2,2009-05-01T01:00:00Z,29.4012,-89.0355,1.0,28.593,11111222 
WAVCIS,ioos:station:WAVCIS:CSI16:2,2009-05-01T01:15:00Z,29.4012,-89.0355,1.0,28.489,11111222 
WAVCIS,ioos:station:WAVCIS:CSI16:2,2009-05-01T01:30:00Z,29.4012,-89.0355,1.0,28.377,11111222 
WAVCIS,ioos:station:WAVCIS:CSI16:2,2009-05-01T01:45:00Z,29.4012,-89.0355,1.0,28.199,11111222 
WAVCIS,ioos:station:WAVCIS:CSI16:2,2009-05-01T02:00:00Z,29.4012,-89.0355,1.0,28.206,11111222 
WAVCIS,ioos:station:WAVCIS:CSI16:2,2009-05-01T02:15:00Z,29.4012,-89.0355,1.0,28.029,11111222 
WAVCIS,ioos:station:WAVCIS:CSI16:2,2009-05-01T02:30:00Z,29.4012,-89.0355,1.0,28.055,11111222 
WAVCIS,ioos:station:WAVCIS:CSI16:2,2009-05-01T02:45:00Z,29.4012,-89.0355,1.0,28.129,11111222 
WAVCIS,ioos:station:WAVCIS:CSI16:2,2009-05-01T03:00:00Z,29.4012,-89.0355,1.0,29.192,11111222 
WAVCIS,ioos:station:WAVCIS:CSI16:2,2009-05-01T03:15:00Z,29.4012,-89.0355,1.0,29.366,11111222 
WAVCIS,ioos:station:WAVCIS:CSI16:2,2009-05-01T03:30:00Z,29.4012,-89.0355,1.0,29.456,11111222 
WAVCIS,ioos:station:WAVCIS:CSI16:2,2009-05-01T03:45:00Z,29.4012,-89.0355,1.0,29.475,11111222 
WAVCIS,ioos:station:WAVCIS:CSI16:2,2009-05-01T04:00:00Z,29.4012,-89.0355,1.0,29.444,11111222 
WAVCIS,ioos:station:WAVCIS:CSI16:2,2009-05-01T04:15:00Z,29.4012,-89.0355,1.0,29.405,11111222 
WAVCIS,ioos:station:WAVCIS:CSI16:2,2009-05-01T04:30:00Z,29.4012,-89.0355,1.0,29.365,11111222 
WAVCIS,ioos:station:WAVCIS:CSI16:2,2009-05-01T04:45:00Z,29.4012,-89.0355,1.0,29.263,11111222 
WAVCIS,ioos:station:WAVCIS:CSI16:2,2009-05-01T05:00:00Z,29.4012,-89.0355,1.0,29.097,11111222 
WAVCIS,ioos:station:WAVCIS:CSI16:2,2009-05-01T05:15:00Z,29.4012,-89.0355,1.0,28.984,11111222 
WAVCIS,ioos:station:WAVCIS:CSI16:2,2009-05-01T05:30:00Z,29.4012,-89.0355,1.0,28.885,11111222 
WAVCIS,ioos:station:WAVCIS:CSI16:2,2009-05-01T05:45:00Z,29.4012,-89.0355,1.0,28.771,11111222 
WAVCIS,ioos:station:WAVCIS:CSI16:2,2009-05-01T06:00:00Z,29.4012,-89.0355,1.0,28.761,11111222 
WAVCIS,ioos:station:WAVCIS:CSI16:2,2009-05-01T06:15:00Z,29.4012,-89.0355,1.0,28.315,11111222 
WAVCIS,ioos:station:WAVCIS:CSI16:2,2009-05-01T06:30:00Z,29.4012,-89.0355,1.0,28.171,11111222 
WAVCIS,ioos:station:WAVCIS:CSI16:2,2009-05-01T06:45:00Z,29.4012,-89.0355,1.0,28.106,11111222 
WAVCIS,ioos:station:WAVCIS:CSI16:2,2009-05-01T07:00:00Z,29.4012,-89.0355,1.0,27.816,11111222 
WAVCIS,ioos:station:WAVCIS:CSI16:2,2009-05-01T07:15:00Z,29.4012,-89.0355,1.0,28.068,11111222 
WAVCIS,ioos:station:WAVCIS:CSI16:2,2009-05-01T07:30:00Z,29.4012,-89.0355,1.0,27.814,11111222 
WAVCIS,ioos:station:WAVCIS:CSI16:2,2009-05-01T07:45:00Z,29.4012,-89.0355,1.0,27.696,11111222 
WAVCIS,ioos:station:WAVCIS:CSI16:2,2009-05-01T08:00:00Z,29.4012,-89.0355,1.0,27.486,11111222 
WAVCIS,ioos:station:WAVCIS:CSI16:2,2009-05-01T08:15:00Z,29.4012,-89.0355,1.0,27.118,11111222 
WAVCIS,ioos:station:WAVCIS:CSI16:2,2009-05-01T08:30:00Z,29.4012,-89.0355,1.0,25.751,11111222 
WAVCIS,ioos:station:WAVCIS:CSI16:2,2009-05-01T08:45:00Z,29.4012,-89.0355,1.0,26.648,11111222 
WAVCIS,ioos:station:WAVCIS:CSI16:2,2009-05-01T09:00:00Z,29.4012,-89.0355,1.0,26.419,11111222 
WAVCIS,ioos:station:WAVCIS:CSI16:2,2009-05-01T09:15:00Z,29.4012,-89.0355,1.0,26.698,11111222 
WAVCIS,ioos:station:WAVCIS:CSI16:2,2009-05-01T09:30:00Z,29.4012,-89.0355,1.0,27.202,11111222 
WAVCIS,ioos:station:WAVCIS:CSI16:2,2009-05-01T09:45:00Z,29.4012,-89.0355,1.0,27.644,11111222 
WAVCIS,ioos:station:WAVCIS:CSI16:2,2009-05-01T10:00:00Z,29.4012,-89.0355,1.0,27.745,11111222 
WAVCIS,ioos:station:WAVCIS:CSI16:2,2009-05-01T10:15:00Z,29.4012,-89.0355,1.0,28.016,11111222 
WAVCIS,ioos:station:WAVCIS:CSI16:2,2009-05-01T10:30:00Z,29.4012,-89.0355,1.0,28.098,11111222 
WAVCIS,ioos:station:WAVCIS:CSI16:2,2009-05-01T10:45:00Z,29.4012,-89.0355,1.0,28.102,11111222 
WAVCIS,ioos:station:WAVCIS:CSI16:2,2009-05-01T11:00:00Z,29.4012,-89.0355,1.0,28.144,11111222 
WAVCIS,ioos:station:WAVCIS:CSI16:2,2009-05-01T11:15:00Z,29.4012,-89.0355,1.0,28.192,11111222 
WAVCIS,ioos:station:WAVCIS:CSI16:2,2009-05-01T11:30:00Z,29.4012,-89.0355,1.0,28.22,11111222 
WAVCIS,ioos:station:WAVCIS:CSI16:2,2009-05-01T11:45:00Z,29.4012,-89.0355,1.0,28.254,11111222 
WAVCIS,ioos:station:WAVCIS:CSI16:2,2009-05-01T12:00:00Z,29.4012,-89.0355,1.0,28.267,11111222 
WAVCIS,ioos:station:WAVCIS:CSI16:2,2009-05-01T12:15:00Z,29.4012,-89.0355,1.0,28.355,11111222 
WAVCIS,ioos:station:WAVCIS:CSI16:2,2009-05-01T12:30:00Z,29.4012,-89.0355,1.0,28.437,11111222 
WAVCIS,ioos:station:WAVCIS:CSI16:2,2009-05-01T12:45:00Z,29.4012,-89.0355,1.0,28.476,11111222 
WAVCIS,ioos:station:WAVCIS:CSI16:2,2009-05-01T13:00:00Z,29.4012,-89.0355,1.0,28.539,11111222 
WAVCIS,ioos:station:WAVCIS:CSI16:2,2009-05-01T13:15:00Z,29.4012,-89.0355,1.0,28.612,11111222 
WAVCIS,ioos:station:WAVCIS:CSI16:2,2009-05-01T13:30:00Z,29.4012,-89.0355,1.0,28.648,11111222 
WAVCIS,ioos:station:WAVCIS:CSI16:2,2009-05-01T13:45:00Z,29.4012,-89.0355,1.0,28.732,11111222 
WAVCIS,ioos:station:WAVCIS:CSI16:2,2009-05-01T14:00:00Z,29.4012,-89.0355,1.0,28.779,11111222 
WAVCIS,ioos:station:WAVCIS:CSI16:2,2009-05-01T14:15:00Z,29.4012,-89.0355,1.0,28.815,11111222 
WAVCIS,ioos:station:WAVCIS:CSI16:2,2009-05-01T14:30:00Z,29.4012,-89.0355,1.0,28.858,11111222 
WAVCIS,ioos:station:WAVCIS:CSI16:2,2009-05-01T14:45:00Z,29.4012,-89.0355,1.0,28.876,11111222 
WAVCIS,ioos:station:WAVCIS:CSI16:2,2009-05-01T15:00:00Z,29.4012,-89.0355,1.0,28.854,11111222 
WAVCIS,ioos:station:WAVCIS:CSI16:2,2009-05-01T15:15:00Z,29.4012,-89.0355,1.0,28.922,11111222 
WAVCIS,ioos:station:WAVCIS:CSI16:2,2009-05-01T15:30:00Z,29.4012,-89.0355,1.0,28.962,11111222 
WAVCIS,ioos:station:WAVCIS:CSI16:2,2009-05-01T15:45:00Z,29.4012,-89.0355,1.0,29.002,11111222 
WAVCIS,ioos:station:WAVCIS:CSI16:2,2009-05-01T16:00:00Z,29.4012,-89.0355,1.0,29.044,11111222 
WAVCIS,ioos:station:WAVCIS:CSI16:2,2009-05-01T16:15:00Z,29.4012,-89.0355,1.0,29.1,11111222 
WAVCIS,ioos:station:WAVCIS:CSI16:2,2009-05-01T16:30:00Z,29.4012,-89.0355,1.0,29.17,11111222 
WAVCIS,ioos:station:WAVCIS:CSI16:2,2009-05-01T16:45:00Z,29.4012,-89.0355,1.0,29.235,11111222 
WAVCIS,ioos:station:WAVCIS:CSI16:2,2009-05-01T17:00:00Z,29.4012,-89.0355,1.0,29.291,11111222 
WAVCIS,ioos:station:WAVCIS:CSI16:2,2009-05-01T17:15:00Z,29.4012,-89.0355,1.0,29.324,11111222 
WAVCIS,ioos:station:WAVCIS:CSI16:2,2009-05-01T17:30:00Z,29.4012,-89.0355,1.0,29.347,11111222 
WAVCIS,ioos:station:WAVCIS:CSI16:2,2009-05-01T17:45:00Z,29.4012,-89.0355,1.0,29.441,11111222 
WAVCIS,ioos:station:WAVCIS:CSI16:2,2009-05-01T18:00:00Z,29.4012,-89.0355,1.0,29.46,11111222 
WAVCIS,ioos:station:WAVCIS:CSI16:2,2009-05-01T18:15:00Z,29.4012,-89.0355,1.0,29.489,11111222 
WAVCIS,ioos:station:WAVCIS:CSI16:2,2009-05-01T18:30:00Z,29.4012,-89.0355,1.0,29.514,11111222 
WAVCIS,ioos:station:WAVCIS:CSI16:2,2009-05-01T18:45:00Z,29.4012,-89.0355,1.0,29.531,11111222 
WAVCIS,ioos:station:WAVCIS:CSI16:2,2009-05-01T19:00:00Z,29.4012,-89.0355,1.0,29.545,11111222 
WAVCIS,ioos:station:WAVCIS:CSI16:2,2009-05-01T19:15:00Z,29.4012,-89.0355,1.0,29.552,11111222 
WAVCIS,ioos:station:WAVCIS:CSI16:2,2009-05-01T19:30:00Z,29.4012,-89.0355,1.0,29.564,11111222 
WAVCIS,ioos:station:WAVCIS:CSI16:2,2009-05-01T19:45:00Z,29.4012,-89.0355,1.0,29.572,11111222 
WAVCIS,ioos:station:WAVCIS:CSI16:2,2009-05-01T20:00:00Z,29.4012,-89.0355,1.0,29.581,11111222 
WAVCIS,ioos:station:WAVCIS:CSI16:2,2009-05-01T20:15:00Z,29.4012,-89.0355,1.0,29.584,11111222 
WAVCIS,ioos:station:WAVCIS:CSI16:2,2009-05-01T20:30:00Z,29.4012,-89.0355,1.0,29.6,11111222 
WAVCIS,ioos:station:WAVCIS:CSI16:2,2009-05-01T20:45:00Z,29.4012,-89.0355,1.0,29.606,11111222 
WAVCIS,ioos:station:WAVCIS:CSI16:2,2009-05-01T21:00:00Z,29.4012,-89.0355,1.0,29.614,11111222 
WAVCIS,ioos:station:WAVCIS:CSI16:2,2009-05-01T21:15:00Z,29.4012,-89.0355,1.0,29.589,11111222 
WAVCIS,ioos:station:WAVCIS:CSI16:2,2009-05-01T21:30:00Z,29.4012,-89.0355,1.0,29.59,11111222 
WAVCIS,ioos:station:WAVCIS:CSI16:2,2009-05-01T21:45:00Z,29.4012,-89.0355,1.0,29.6,11111222 
WAVCIS,ioos:station:WAVCIS:CSI16:2,2009-05-01T22:00:00Z,29.4012,-89.0355,1.0,29.628,11111222 
WAVCIS,ioos:station:WAVCIS:CSI16:2,2009-05-01T22:15:00Z,29.4012,-89.0355,1.0,29.627,11111222 
WAVCIS,ioos:station:WAVCIS:CSI16:2,2009-05-01T22:30:00Z,29.4012,-89.0355,1.0,29.638,11111222 
WAVCIS,ioos:station:WAVCIS:CSI16:2,2009-05-01T22:45:00Z,29.4012,-89.0355,1.0,29.636,11111222 
WAVCIS,ioos:station:WAVCIS:CSI16:2,2009-05-01T23:00:00Z,29.4012,-89.0355,1.0,29.65,11111222 
WAVCIS,ioos:station:WAVCIS:CSI16:2,2009-05-01T23:15:00Z,29.4012,-89.0355,1.0,29.653,11111222 
WAVCIS,ioos:station:WAVCIS:CSI16:2,2009-05-01T23:30:00Z,29.4012,-89.0355,1.0,29.665,11111222 
WAVCIS,ioos:station:WAVCIS:CSI16:2,2009-05-01T23:45:00Z,29.4012,-89.0355,1.0,29.653,11111222 
WAVCIS,ioos:station:WAVCIS:CSI16:2,2009-05-02T00:00:00Z,29.4012,-89.0355,1.0,29.645,11111222 
WAVCIS,ioos:station:WAVCIS:CSI16:2,2009-05-02T00:15:00Z,29.4012,-89.0355,1.0,29.647,11111222 
WAVCIS,ioos:station:WAVCIS:CSI16:2,2009-05-02T00:30:00Z,29.4012,-89.0355,1.0,29.647,11111222 
WAVCIS,ioos:station:WAVCIS:CSI16:2,2009-05-02T00:45:00Z,29.4012,-89.0355,1.0,29.602,11111222 
WAVCIS,ioos:station:WAVCIS:CSI16:2,2009-05-02T01:00:00Z,29.4012,-89.0355,1.0,29.482,11111222 
WAVCIS,ioos:station:WAVCIS:CSI16:2,2009-05-02T01:15:00Z,29.4012,-89.0355,1.0,29.449,11111222 
WAVCIS,ioos:station:WAVCIS:CSI16:2,2009-05-02T01:30:00Z,29.4012,-89.0355,1.0,29.377,11111222 
WAVCIS,ioos:station:WAVCIS:CSI16:2,2009-05-02T01:45:00Z,29.4012,-89.0355,1.0,29.398,11111222 
WAVCIS,ioos:station:WAVCIS:CSI16:2,2009-05-02T02:00:00Z,29.4012,-89.0355,1.0,29.426,11111222 
WAVCIS,ioos:station:WAVCIS:CSI16:2,2009-05-02T02:15:00Z,29.4012,-89.0355,1.0,29.389,11111222 
WAVCIS,ioos:station:WAVCIS:CSI16:2,2009-05-02T02:30:00Z,29.4012,-89.0355,1.0,29.318,11111222 
WAVCIS,ioos:station:WAVCIS:CSI16:2,2009-05-02T02:45:00Z,29.4012,-89.0355,1.0,29.101,11111222 
WAVCIS,ioos:station:WAVCIS:CSI16:2,2009-05-02T03:00:00Z,29.4012,-89.0355,1.0,29.035,11111222 
WAVCIS,ioos:station:WAVCIS:CSI16:2,2009-05-02T03:15:00Z,29.4012,-89.0355,1.0,29.106,11111222 
WAVCIS,ioos:station:WAVCIS:CSI16:2,2009-05-02T03:30:00Z,29.4012,-89.0355,1.0,29.167,11111222 
WAVCIS,ioos:station:WAVCIS:CSI16:2,2009-05-02T03:45:00Z,29.4012,-89.0355,1.0,29.066,11111222 
WAVCIS,ioos:station:WAVCIS:CSI16:2,2009-05-02T04:00:00Z,29.4012,-89.0355,1.0,28.947,11111222 
WAVCIS,ioos:station:WAVCIS:CSI16:2,2009-05-02T04:15:00Z,29.4012,-89.0355,1.0,28.909,11111222 
WAVCIS,ioos:station:WAVCIS:CSI16:2,2009-05-02T04:30:00Z,29.4012,-89.0355,1.0,28.917,11111222 
WAVCIS,ioos:station:WAVCIS:CSI16:2,2009-05-02T04:45:00Z,29.4012,-89.0355,1.0,28.954,11111222 
WAVCIS,ioos:station:WAVCIS:CSI16:2,2009-05-02T05:00:00Z,29.4012,-89.0355,1.0,28.831,11111222 
WAVCIS,ioos:station:WAVCIS:CSI16:2,2009-05-02T05:15:00Z,29.4012,-89.0355,1.0,28.919,11111222 
WAVCIS,ioos:station:WAVCIS:CSI16:2,2009-05-02T05:30:00Z,29.4012,-89.0355,1.0,28.781,11111222 
WAVCIS,ioos:station:WAVCIS:CSI16:2,2009-05-02T05:45:00Z,29.4012,-89.0355,1.0,28.979,11111222 
WAVCIS,ioos:station:WAVCIS:CSI16:2,2009-05-02T06:00:00Z,29.4012,-89.0355,1.0,29.052,11111222 
WAVCIS,ioos:station:WAVCIS:CSI16:2,2009-05-02T06:15:00Z,29.4012,-89.0355,1.0,29.24,11111222 
WAVCIS,ioos:station:WAVCIS:CSI16:2,2009-05-02T06:30:00Z,29.4012,-89.0355,1.0,29.389,11111222 
WAVCIS,ioos:station:WAVCIS:CSI16:2,2009-05-02T06:45:00Z,29.4012,-89.0355,1.0,29.198,11111222 
WAVCIS,ioos:station:WAVCIS:CSI16:2,2009-05-02T07:00:00Z,29.4012,-89.0355,1.0,29.056,11111222 
WAVCIS,ioos:station:WAVCIS:CSI16:2,2009-05-02T07:15:00Z,29.4012,-89.0355,1.0,28.887,11111222 
WAVCIS,ioos:station:WAVCIS:CSI16:2,2009-05-02T07:30:00Z,29.4012,-89.0355,1.0,28.865,11111222 
WAVCIS,ioos:station:WAVCIS:CSI16:2,2009-05-02T07:45:00Z,29.4012,-89.0355,1.0,28.76,11111222 
WAVCIS,ioos:station:WAVCIS:CSI16:2,2009-05-02T08:00:00Z,29.4012,-89.0355,1.0,28.632,11111222 
WAVCIS,ioos:station:WAVCIS:CSI16:2,2009-05-02T08:15:00Z,29.4012,-89.0355,1.0,28.59,11111222 
WAVCIS,ioos:station:WAVCIS:CSI16:2,2009-05-02T08:30:00Z,29.4012,-89.0355,1.0,28.61,11111222 
WAVCIS,ioos:station:WAVCIS:CSI16:2,2009-05-02T08:45:00Z,29.4012,-89.0355,1.0,28.656,11111222 
WAVCIS,ioos:station:WAVCIS:CSI16:2,2009-05-02T09:00:00Z,29.4012,-89.0355,1.0,28.594,11111222 
WAVCIS,ioos:station:WAVCIS:CSI16:2,2009-05-02T09:15:00Z,29.4012,-89.0355,1.0,28.662,11111222 
WAVCIS,ioos:station:WAVCIS:CSI16:2,2009-05-02T09:30:00Z,29.4012,-89.0355,1.0,28.59,11111222 
WAVCIS,ioos:station:WAVCIS:CSI16:2,2009-05-02T09:45:00Z,29.4012,-89.0355,1.0,28.522,11111222 
WAVCIS,ioos:station:WAVCIS:CSI16:2,2009-05-02T10:00:00Z,29.4012,-89.0355,1.0,28.562,11111222 
WAVCIS,ioos:station:WAVCIS:CSI16:2,2009-05-02T10:15:00Z,29.4012,-89.0355,1.0,28.522,11111222 
WAVCIS,ioos:station:WAVCIS:CSI16:2,2009-05-02T10:30:00Z,29.4012,-89.0355,1.0,28.468,11111222 
WAVCIS,ioos:station:WAVCIS:CSI16:2,2009-05-02T10:45:00Z,29.4012,-89.0355,1.0,28.451,11111222 
WAVCIS,ioos:station:WAVCIS:CSI16:2,2009-05-02T11:00:00Z,29.4012,-89.0355,1.0,28.451,11111222 
WAVCIS,ioos:station:WAVCIS:CSI16:2,2009-05-02T11:15:00Z,29.4012,-89.0355,1.0,28.398,11111222 
WAVCIS,ioos:station:WAVCIS:CSI16:2,2009-05-02T11:30:00Z,29.4012,-89.0355,1.0,28.354,11111222 
WAVCIS,ioos:station:WAVCIS:CSI16:2,2009-05-02T11:45:00Z,29.4012,-89.0355,1.0,28.346,11111222 
WAVCIS,ioos:station:WAVCIS:CSI16:2,2009-05-02T12:00:00Z,29.4012,-89.0355,1.0,28.347,11111222 
WAVCIS,ioos:station:WAVCIS:CSI16:2,2009-05-02T12:15:00Z,29.4012,-89.0355,1.0,28.349,11111222 
WAVCIS,ioos:station:WAVCIS:CSI16:2,2009-05-02T12:30:00Z,29.4012,-89.0355,1.0,28.336,11111222 
WAVCIS,ioos:station:WAVCIS:CSI16:2,2009-05-02T12:45:00Z,29.4012,-89.0355,1.0,28.333,11111222 
WAVCIS,ioos:station:WAVCIS:CSI16:2,2009-05-02T13:00:00Z,29.4012,-89.0355,1.0,28.346,11111222 
WAVCIS,ioos:station:WAVCIS:CSI16:2,2009-05-02T13:15:00Z,29.4012,-89.0355,1.0,28.344,11111222 
WAVCIS,ioos:station:WAVCIS:CSI16:2,2009-05-02T13:30:00Z,29.4012,-89.0355,1.0,28.354,11111222 
WAVCIS,ioos:station:WAVCIS:CSI16:2,2009-05-02T13:45:00Z,29.4012,-89.0355,1.0,28.359,11111222 
WAVCIS,ioos:station:WAVCIS:CSI16:2,2009-05-02T14:00:00Z,29.4012,-89.0355,1.0,28.367,11111222 
WAVCIS,ioos:station:WAVCIS:CSI16:2,2009-05-02T14:15:00Z,29.4012,-89.0355,1.0,28.38,11111222 
WAVCIS,ioos:station:WAVCIS:CSI16:2,2009-05-02T14:30:00Z,29.4012,-89.0355,1.0,28.391,11111222 
WAVCIS,ioos:station:WAVCIS:CSI16:2,2009-05-02T14:45:00Z,29.4012,-89.0355,1.0,28.422,11111222 
WAVCIS,ioos:station:WAVCIS:CSI16:2,2009-05-02T15:00:00Z,29.4012,-89.0355,1.0,28.439,11111222 
WAVCIS,ioos:station:WAVCIS:CSI16:2,2009-05-02T15:15:00Z,29.4012,-89.0355,1.0,28.478,11111222 
WAVCIS,ioos:station:WAVCIS:CSI16:2,2009-05-02T15:30:00Z,29.4012,-89.0355,1.0,28.497,11111222 
WAVCIS,ioos:station:WAVCIS:CSI16:2,2009-05-02T15:45:00Z,29.4012,-89.0355,1.0,28.541,11111222 
WAVCIS,ioos:station:WAVCIS:CSI16:2,2009-05-02T16:00:00Z,29.4012,-89.0355,1.0,28.557,11111222 
WAVCIS,ioos:station:WAVCIS:CSI16:2,2009-05-02T16:15:00Z,29.4012,-89.0355,1.0,28.579,11111222 
WAVCIS,ioos:station:WAVCIS:CSI16:2,2009-05-02T16:30:00Z,29.4012,-89.0355,1.0,28.599,11111222 
WAVCIS,ioos:station:WAVCIS:CSI16:2,2009-05-02T16:45:00Z,29.4012,-89.0355,1.0,28.624,11111222 
WAVCIS,ioos:station:WAVCIS:CSI16:2,2009-05-02T17:00:00Z,29.4012,-89.0355,1.0,28.648,11111222 
WAVCIS,ioos:station:WAVCIS:CSI16:2,2009-05-02T17:15:00Z,29.4012,-89.0355,1.0,28.66,11111222 
WAVCIS,ioos:station:WAVCIS:CSI16:2,2009-05-02T17:30:00Z,29.4012,-89.0355,1.0,28.695,11111222 
WAVCIS,ioos:station:WAVCIS:CSI16:2,2009-05-02T17:45:00Z,29.4012,-89.0355,1.0,28.729,11111222 
WAVCIS,ioos:station:WAVCIS:CSI16:2,2009-05-02T18:00:00Z,29.4012,-89.0355,1.0,28.749,11111222 
WAVCIS,ioos:station:WAVCIS:CSI16:2,2009-05-02T18:15:00Z,29.4012,-89.0355,1.0,28.769,11111222 
WAVCIS,ioos:station:WAVCIS:CSI16:2,2009-05-02T18:30:00Z,29.4012,-89.0355,1.0,28.829,11111222 
WAVCIS,ioos:station:WAVCIS:CSI16:2,2009-05-02T18:45:00Z,29.4012,-89.0355,1.0,28.866,11111222 
WAVCIS,ioos:station:WAVCIS:CSI16:2,2009-05-02T19:00:00Z,29.4012,-89.0355,1.0,28.892,11111222 
WAVCIS,ioos:station:WAVCIS:CSI16:2,2009-05-02T19:15:00Z,29.4012,-89.0355,1.0,28.983,11111222 
WAVCIS,ioos:station:WAVCIS:CSI16:2,2009-05-02T19:30:00Z,29.4012,-89.0355,1.0,29.004,11111222 
WAVCIS,ioos:station:WAVCIS:CSI16:2,2009-05-02T19:45:00Z,29.4012,-89.0355,1.0,29.056,11111222 
WAVCIS,ioos:station:WAVCIS:CSI16:2,2009-05-02T20:00:00Z,29.4012,-89.0355,1.0,29.115,11111222 
WAVCIS,ioos:station:WAVCIS:CSI16:2,2009-05-02T20:15:00Z,29.4012,-89.0355,1.0,29.17,11111222 
WAVCIS,ioos:station:WAVCIS:CSI16:2,2009-05-02T20:30:00Z,29.4012,-89.0355,1.0,29.204,11111222 
WAVCIS,ioos:station:WAVCIS:CSI16:2,2009-05-02T20:45:00Z,29.4012,-89.0355,1.0,29.26,11111222 
WAVCIS,ioos:station:WAVCIS:CSI16:2,2009-05-02T21:00:00Z,29.4012,-89.0355,1.0,29.271,11111222 
WAVCIS,ioos:station:WAVCIS:CSI16:2,2009-05-02T21:15:00Z,29.4012,-89.0355,1.0,29.294,11111222 
WAVCIS,ioos:station:WAVCIS:CSI16:2,2009-05-02T21:30:00Z,29.4012,-89.0355,1.0,29.254,11111222 
WAVCIS,ioos:station:WAVCIS:CSI16:2,2009-05-02T21:45:00Z,29.4012,-89.0355,1.0,29.339,11111222 
WAVCIS,ioos:station:WAVCIS:CSI16:2,2009-05-02T22:00:00Z,29.4012,-89.0355,1.0,29.367,11111222 
WAVCIS,ioos:station:WAVCIS:CSI16:2,2009-05-02T22:15:00Z,29.4012,-89.0355,1.0,29.379,11111222 
WAVCIS,ioos:station:WAVCIS:CSI16:2,2009-05-02T22:30:00Z,29.4012,-89.0355,1.0,29.394,11111222 
WAVCIS,ioos:station:WAVCIS:CSI16:2,2009-05-02T22:45:00Z,29.4012,-89.0355,1.0,29.381,11111222 
WAVCIS,ioos:station:WAVCIS:CSI16:2,2009-05-02T23:00:00Z,29.4012,-89.0355,1.0,29.383,11111222 
WAVCIS,ioos:station:WAVCIS:CSI16:2,2009-05-02T23:15:00Z,29.4012,-89.0355,1.0,29.382,11111222 
WAVCIS,ioos:station:WAVCIS:CSI16:2,2009-05-02T23:30:00Z,29.4012,-89.0355,1.0,29.416,11111222 
WAVCIS,ioos:station:WAVCIS:CSI16:2,2009-05-02T23:45:00Z,29.4012,-89.0355,1.0,29.441,11111222 
WAVCIS,ioos:station:WAVCIS:CSI16:2,2009-05-03T00:00:00Z,29.4012,-89.0355,1.0,29.472,11111222 
WAVCIS,ioos:station:WAVCIS:CSI16:2,2009-05-03T00:15:00Z,29.4012,-89.0355,1.0,29.496,11111222 
WAVCIS,ioos:station:WAVCIS:CSI16:2,2009-05-03T00:30:00Z,29.4012,-89.0355,1.0,29.527,11111222 
WAVCIS,ioos:station:WAVCIS:CSI16:2,2009-05-03T00:45:00Z,29.4012,-89.0355,1.0,29.544,11111222 
WAVCIS,ioos:station:WAVCIS:CSI16:2,2009-05-03T01:00:00Z,29.4012,-89.0355,1.0,29.556,11111222 
WAVCIS,ioos:station:WAVCIS:CSI16:2,2009-05-03T01:15:00Z,29.4012,-89.0355,1.0,29.557,11111222 
WAVCIS,ioos:station:WAVCIS:CSI16:2,2009-05-03T01:30:00Z,29.4012,-89.0355,1.0,29.57,11111222 
WAVCIS,ioos:station:WAVCIS:CSI16:2,2009-05-03T01:45:00Z,29.4012,-89.0355,1.0,29.573,11111222 
WAVCIS,ioos:station:WAVCIS:CSI16:2,2009-05-03T02:00:00Z,29.4012,-89.0355,1.0,29.588,11111222 
WAVCIS,ioos:station:WAVCIS:CSI16:2,2009-05-03T02:15:00Z,29.4012,-89.0355,1.0,29.603,11111222 
WAVCIS,ioos:station:WAVCIS:CSI16:2,2009-05-03T02:30:00Z,29.4012,-89.0355,1.0,29.619,11111222 
WAVCIS,ioos:station:WAVCIS:CSI16:2,2009-05-03T02:45:00Z,29.4012,-89.0355,1.0,29.63,11111222 
WAVCIS,ioos:station:WAVCIS:CSI16:2,2009-05-03T03:00:00Z,29.4012,-89.0355,1.0,29.643,11111222 
WAVCIS,ioos:station:WAVCIS:CSI16:2,2009-05-03T03:15:00Z,29.4012,-89.0355,1.0,29.648,11111222 
WAVCIS,ioos:station:WAVCIS:CSI16:2,2009-05-03T03:30:00Z,29.4012,-89.0355,1.0,29.663,11111222 
WAVCIS,ioos:station:WAVCIS:CSI16:2,2009-05-03T03:45:00Z,29.4012,-89.0355,1.0,29.68,11111222 
WAVCIS,ioos:station:WAVCIS:CSI16:2,2009-05-03T04:00:00Z,29.4012,-89.0355,1.0,29.687,11111222 
WAVCIS,ioos:station:WAVCIS:CSI16:2,2009-05-03T04:15:00Z,29.4012,-89.0355,1.0,29.702,11111222 
WAVCIS,ioos:station:WAVCIS:CSI16:2,2009-05-03T04:30:00Z,29.4012,-89.0355,1.0,29.71,11111222 
WAVCIS,ioos:station:WAVCIS:CSI16:2,2009-05-03T04:45:00Z,29.4012,-89.0355,1.0,29.723,11111222 
WAVCIS,ioos:station:WAVCIS:CSI16:2,2009-05-03T05:00:00Z,29.4012,-89.0355,1.0,29.729,11111222 
WAVCIS,ioos:station:WAVCIS:CSI16:2,2009-05-03T05:15:00Z,29.4012,-89.0355,1.0,29.727,11111222 
WAVCIS,ioos:station:WAVCIS:CSI16:2,2009-05-03T05:30:00Z,29.4012,-89.0355,1.0,29.747,11111222 
WAVCIS,ioos:station:WAVCIS:CSI16:2,2009-05-03T05:45:00Z,29.4012,-89.0355,1.0,29.754,11111222 
WAVCIS,ioos:station:WAVCIS:CSI16:2,2009-05-03T06:00:00Z,29.4012,-89.0355,1.0,29.787,11111222 
WAVCIS,ioos:station:WAVCIS:CSI16:2,2009-05-03T06:15:00Z,29.4012,-89.0355,1.0,29.792,11111222 
WAVCIS,ioos:station:WAVCIS:CSI16:2,2009-05-03T06:30:00Z,29.4012,-89.0355,1.0,29.836,11111222 
WAVCIS,ioos:station:WAVCIS:CSI16:2,2009-05-03T06:45:00Z,29.4012,-89.0355,1.0,29.825,11111222 
WAVCIS,ioos:station:WAVCIS:CSI16:2,2009-05-03T07:00:00Z,29.4012,-89.0355,1.0,29.847,11111222 
WAVCIS,ioos:station:WAVCIS:CSI16:2,2009-05-03T07:15:00Z,29.4012,-89.0355,1.0,29.865,11111222 
WAVCIS,ioos:station:WAVCIS:CSI16:2,2009-05-03T07:30:00Z,29.4012,-89.0355,1.0,29.896,11111222 
WAVCIS,ioos:station:WAVCIS:CSI16:2,2009-05-03T07:45:00Z,29.4012,-89.0355,1.0,29.907,11111222 
WAVCIS,ioos:station:WAVCIS:CSI16:2,2009-05-03T08:00:00Z,29.4012,-89.0355,1.0,29.939,11111222 
WAVCIS,ioos:station:WAVCIS:CSI16:2,2009-05-03T08:15:00Z,29.4012,-89.0355,1.0,29.924,11111222 
WAVCIS,ioos:station:WAVCIS:CSI16:2,2009-05-03T08:30:00Z,29.4012,-89.0355,1.0,29.846,11111222 
WAVCIS,ioos:station:WAVCIS:CSI16:2,2009-05-03T08:45:00Z,29.4012,-89.0355,1.0,29.934,11111222 
WAVCIS,ioos:station:WAVCIS:CSI16:2,2009-05-03T09:00:00Z,29.4012,-89.0355,1.0,29.964,11111222 
WAVCIS,ioos:station:WAVCIS:CSI16:2,2009-05-03T09:15:00Z,29.4012,-89.0355,1.0,29.976,11111222 
WAVCIS,ioos:station:WAVCIS:CSI16:2,2009-05-03T09:30:00Z,29.4012,-89.0355,1.0,29.995,11111222 
WAVCIS,ioos:station:WAVCIS:CSI16:2,2009-05-03T09:45:00Z,29.4012,-89.0355,1.0,29.973,11111222 
WAVCIS,ioos:station:WAVCIS:CSI16:2,2009-05-03T10:00:00Z,29.4012,-89.0355,1.0,30.027,11111222 
WAVCIS,ioos:station:WAVCIS:CSI16:2,2009-05-03T10:15:00Z,29.4012,-89.0355,1.0,30.041,11111222 
WAVCIS,ioos:station:WAVCIS:CSI16:2,2009-05-03T10:30:00Z,29.4012,-89.0355,1.0,30.045,11111222 
WAVCIS,ioos:station:WAVCIS:CSI16:2,2009-05-03T10:45:00Z,29.4012,-89.0355,1.0,30.059,11111222 
WAVCIS,ioos:station:WAVCIS:CSI16:2,2009-05-03T11:00:00Z,29.4012,-89.0355,1.0,30.071,11111222 
WAVCIS,ioos:station:WAVCIS:CSI16:2,2009-05-03T11:15:00Z,29.4012,-89.0355,1.0,30.084,11111222 
WAVCIS,ioos:station:WAVCIS:CSI16:2,2009-05-03T11:30:00Z,29.4012,-89.0355,1.0,30.072,11111222 
WAVCIS,ioos:station:WAVCIS:CSI16:2,2009-05-03T11:45:00Z,29.4012,-89.0355,1.0,29.96,11111222 
WAVCIS,ioos:station:WAVCIS:CSI16:2,2009-05-03T12:00:00Z,29.4012,-89.0355,1.0,30.123,11111222 
WAVCIS,ioos:station:WAVCIS:CSI16:2,2009-05-03T12:15:00Z,29.4012,-89.0355,1.0,30.182,11111222 
WAVCIS,ioos:station:WAVCIS:CSI16:2,2009-05-03T12:30:00Z,29.4012,-89.0355,1.0,30.199,11111222 
WAVCIS,ioos:station:WAVCIS:CSI16:2,2009-05-03T12:45:00Z,29.4012,-89.0355,1.0,30.21,11111222 
WAVCIS,ioos:station:WAVCIS:CSI16:2,2009-05-03T13:00:00Z,29.4012,-89.0355,1.0,30.22,11111222 
WAVCIS,ioos:station:WAVCIS:CSI16:2,2009-05-03T13:15:00Z,29.4012,-89.0355,1.0,30.237,11111222 
WAVCIS,ioos:station:WAVCIS:CSI16:2,2009-05-03T13:30:00Z,29.4012,-89.0355,1.0,30.283,11111222 
WAVCIS,ioos:station:WAVCIS:CSI16:2,2009-05-03T13:45:00Z,29.4012,-89.0355,1.0,30.276,11111222 
WAVCIS,ioos:station:WAVCIS:CSI16:2,2009-05-03T14:00:00Z,29.4012,-89.0355,1.0,30.297,11111222 
WAVCIS,ioos:station:WAVCIS:CSI16:2,2009-05-03T14:15:00Z,29.4012,-89.0355,1.0,30.268,11111222 
WAVCIS,ioos:station:WAVCIS:CSI16:2,2009-05-03T14:30:00Z,29.4012,-89.0355,1.0,30.331,11111222 
WAVCIS,ioos:station:WAVCIS:CSI16:2,2009-05-03T14:45:00Z,29.4012,-89.0355,1.0,30.212,11111222 
WAVCIS,ioos:station:WAVCIS:CSI16:2,2009-05-03T15:00:00Z,29.4012,-89.0355,1.0,30.208,11111222 
WAVCIS,ioos:station:WAVCIS:CSI16:2,2009-05-03T15:15:00Z,29.4012,-89.0355,1.0,30.233,11111222 